Regional Weather Roundup
Issued by NWS Cleveland, OH

Home | Current Version | Previous Version | Text Only | Print | Product List | Glossary Off
Versions: 1 2 3 4 5 6 7 8 9 10 11 12 13 14 15 16 17 18 19 20 21 22 23 24 25 26 27 28 29 30 31 32 33 34 35 36 37 38 39 40 41 42 43 44 45 46 47 48 49 50

000
ASUS41 KCLE 211300
RWRCLE
OHIO REGIONAL WEATHER ROUNDUP
NATIONAL WEATHER SERVICE WILMINGTON, OH
900 AM EDT MON AUG 21 2017

NOTE: "FAIR" INDICATES FEW OR NO CLOUDS BELOW 12,000 FEET WITH NO
SIGNIFICANT WEATHER AND/OR OBSTRUCTIONS TO VISIBILITY.

OHZ001>008-015>018-024>027-034-035-043-044-211400-
   NORTHWEST OHIO

CITY           SKY/WX    TMP DP  RH WIND       PRES   REMARKS
DEFIANCE       PTSUNNY   72  66  81 VRB3      30.11F
FINDLAY        FAIR      74  67  78 CALM      30.13S
TOLEDO EXPRESS PTSUNNY   71  69  93 E3        30.12F
TOLEDO EXEC    FAIR      74  68  81 CALM      30.13F
LIMA           FAIR      73  68  84 S3        30.15R
$$

OHZ009>014-019>023-028>033-038-089-211400-
   NORTHEAST OHIO

CITY           SKY/WX    TMP DP  RH WIND       PRES   REMARKS
CLE-HOPKINS    PTSUNNY   79  67  66 SW7       30.16R
CLE-LAKEFRONT  FAIR      78  66  66 SW5       30.13R
CUY CO. ARPT   MOSUNNY   81  68  65 W7        30.16R
LORAIN-ELYRIA    N/A    N/A N/A N/A MISG      30.15R
ASHTABULA      FAIR      71  67  87 CALM      30.16S
AKRON-CANTON   PTSUNNY   76  66  71 SW8       30.18R
WOOSTER        NOT AVBL
MANSFIELD      PTSUNNY   75  68  78 SW3       30.18R
YOUNGSTOWN     FAIR      74  66  76 S6        30.17S
$$

OHZ042-051>053-060>062-070>072-077>081-211400-
  SOUTHWEST OHIO

CITY           SKY/WX    TMP DP  RH WIND       PRES   REMARKS
CINC-COVINGTON FAIR      76  70  82 S6        30.16F
CINC-LUNKEN    FAIR      75  74  96 SW5       30.16F
HAMILTON       FAIR      78  70  76 CALM      30.16S
DAYTON         NOT AVBL
WRIGHT-PAT AFB FAIR      78  71  79 SW6       30.16R
DAYTON GENERAL FAIR      76  69  79 S5        30.16S
WILMINGTON     FAIR      77  71  82 SW5       30.18R
$$

OHZ036-037-039>041-045>050-054>059-063>069-073>076-082>088-211400-
  CENTRAL AND SOUTHEAST OHIO

CITY           SKY/WX    TMP DP  RH WIND       PRES   REMARKS
COLUMBUS       PTSUNNY   75  70  84 S5        30.16R
OSU AIRPORT    FAIR      78  70  76 SW9       30.16R
BOLTON FIELD   SUNNY     73  70  88 CALM      30.17R
RICKENBACK AFB NOT AVBL
NEWARK         FAIR      74  70  87 CALM      30.17R
MARION         FAIR      73  68  84 S3        30.17R HAZE
LANCASTER      FAIR      75  69  81 S5        30.17S
ZANESVILLE     PTSUNNY   73  69  87 S3        30.18S
NEW PHILLY     FAIR      71  69  93 SE3       30.18S
$$




USA.gov is the U.S. government's official web portal to all federal, state and local government web resources and services.